Dewpoint
53 52 50 50 49 49 50 50 50 50 51 51 52 53 53 54 52 34 32 33 42 54 52 29 24 22 25 27 27 28 25 21 20 18 21 23 23 24 25 25 25 25 25 28 28
54 53 52 51 49 49 49 49 50 50 50 51 52 53 53 54 42 33 41 52 52 53 32 25 21 20 20 22 23 24 25 22 21 21 22 23 23 21 21 21 20 22 24 28 26
55 54 53 52 50 49 50 50 50 49 49 50 51 52 52 50 37 27 53 52 53 47 30 22 22 19 19 20 20 21 22 24 22 23 21 19 17 18 16 16 19 19 22 25 29
57 56 54 52 51 50 50 50 50 49 48 49 49 52 52 44 28 29 53 52 52 35 24 20 22 21 21 20 21 19 19 19 18 17 18 18 18 15 16 17 19 21 22 25 27
57 56 55 53 52 50 50 51 50 49 48 48 49 51 43 35 29 32 54 48 29 28 22 21 21 21 19 19 19 19 20 20 19 17 15 14 13 13 13 15 19 17 21 24 26
56 56 55 55 53 51 51 51 51 49 48 47 49 51 37 34 7 24 24 23 22 22 20 19 18 19 18 16 16 17 15 14 14 12 13 12 12 12 13 19 17 17 18 23 25
56 56 55 54 54 52 51 51 51 50 47 48 51 41 32 34 18 15 18 20 18 18 19 19 19 18 20 19 20 17 15 13 12 13 10 10 8 9 15 16 14 11 11 14 16
56 56 55 54 53 52 51 51 50 49 47 51 52 38 34 32 21 10 19 23 21 19 19 19 18 17 17 18 15 12 13 12 11 10 10 7 6 12 13 10 7 9 8 18 26
56 56 55 53 53 52 51 50 50 48 47 50 43 41 36 37 19 17 17 20 22 18 18 15 16 17 17 16 14 12 11 12 10 8 7 6 6 6 4 5 6 7 16 22 27
57 56 55 53 52 51 49 49 47 44 45 39 37 33 35 29 22 18 20 19 18 17 16 17 17 17 16 12 9 11 10 10 10 7 2 3 3 0 -3 1 4 19 23 24 26
57 56 55 53 52 50 44 35 35 40 37 37 35 32 19 21 21 15 14 15 13 17 16 19 16 15 13 12 7 4 2 1 1 -1 -0 1 -1 -3 -1 17 21 20 23 24 29
56 56 55 53 51 47 38 28 33 33 32 36 33 32 27 23 18 16 12 11 12 14 16 15 14 14 8 5 4 2 -1 -1 1 -0 -1 -1 -4 -4 8 19 19 21 23 34 35
56 56 55 52 47 42 34 33 36 34 31 38 38 32 25 25 24 17 9 9 9 10 11 11 9 5 3 3 1 2 2 2 1 2 -2 -2 -4 -1 14 17 17 22 32 32 33
55 55 52 48 46 42 34 33 39 44 40 38 25 22 27 24 21 20 9 10 11 10 9 8 7 2 1 -0 -1 2 4 3 2 -0 -6 -1 -8 2 14 15 18 32 32 32 34
55 53 49 51 51 43 46 36 42 46 33 35 20 19 22 19 18 9 8 10 10 9 8 8 7 4 3 2 2 3 7 7 4 -1 -1 -3 -4 -3 12 13 28 31 29 32 34
53 50 50 48 47 42 38 40 45 39 31 27 18 16 17 19 11 8 7 7 8 8 9 8 6 4 4 7 6 5 3 2 4 4 3 5 4 0 6 14 28 30 30 31 32
52 50 50 47 43 43 44 44 36 34 30 28 18 17 17 16 14 8 9 8 8 8 9 7 6 4 5 3 3 8 8 6 4 4 4 5 4 5 20 28 30 28 29 31 32
51 49 51 50 49 41 44 39 32 32 28 23 21 16 16 14 12 10 8 8 9 8 6 7 4 2 6 3 3 8 5 8 -1 2 6 3 1 10 27 31 32 32 31 33 32
50 48 46 46 48 47 40 34 33 33 29 27 20 15 15 14 10 11 10 9 8 7 7 6 6 6 7 6 4 3 4 10 11 9 6 -1 -0 8 26 28 29 28 29 30 31
46 43 42 47 48 44 37 35 35 32 29 28 23 17 15 14 10 11 10 10 9 9 12 11 10 8 7 7 5 5 7 11 11 13 5 3 4 15 23 25 26 27 29 30 30
44 39 42 47 44 38 34 34 35 34 31 23 21 18 16 16 12 13 12 12 10 11 12 12 12 12 9 8 3 12 9 8 7 14 9 6 10 21 23 25 27 28 29 29 29
43 34 42 45 34 36 33 33 36 31 27 22 20 19 20 19 18 15 15 15 13 16 13 14 13 7 7 5 5 7 12 19 22 17 19 18 12 28 29 28 27 28 28 28 29
36 33 41 43 31 31 34 33 34 31 26 21 20 22 24 22 19 19 18 18 14 16 14 15 11 8 3 6 11 11 7 10 23 23 20 16 7 29 30 30 28 28 27 27 27
35 30 33 35 37 35 32 34 32 33 26 18 20 23 22 20 23 21 19 19 18 17 30 25 10 9 6 5 11 15 8 9 17 18 12 13 11 26 29 25 28 27 26 26 26
38 34 33 29 32 35 35 38 32 24 26 20 21 22 22 21 21 18 22 21 19 23 19 18 13 10 7 6 5 10 10 7 9 12 13 9 8 21 24 23 24 24 25 24 24
34 38 35 32 32 34 35 36 36 25 20 21 19 19 21 22 25 22 22 21 20 21 19 19 19 21 19 8 3 6 3 7 7 7 5 6 9 23 22 21 22 24 23 23 23
41 44 37 35 33 33 35 34 34 27 22 20 27 28 24 22 23 23 25 25 21 23 24 22 20 18 14 10 9 8 8 6 7 14 20 18 18 21 21 21 23 25 24 23 22
Lifted_Index
8 8 7 6 6 6 6 6 7 7 8 9 9 9 8 8 7 7 8 9 10 11 10 10 10 9 9 8 7 6 5 4 3 2 2 4 5 6 5 5 5 6 6 6 6
8 7 7 6 6 6 6 6 6 7 8 8 9 9 9 8 7 7 8 10 11 11 10 10 9 9 8 8 7 6 5 4 3 3 4 4 5 6 6 6 6 6 6 7 7
7 7 7 6 6 6 6 6 6 6 7 8 9 9 9 7 6 7 10 11 11 11 10 10 9 9 8 7 7 6 6 5 5 5 5 5 6 6 6 6 6 6 7 7 7
6 6 6 6 6 6 6 6 6 6 7 7 8 8 8 6 6 8 11 11 11 11 10 10 9 8 7 7 7 6 6 6 6 6 6 6 6 7 7 7 7 7 8 8 8
5 5 5 5 5 6 6 6 5 6 6 8 8 8 7 6 7 10 11 12 11 11 10 9 8 8 7 7 6 6 7 7 7 7 7 7 7 7 7 7 8 8 8 8 8
3 3 3 4 4 5 5 5 5 5 6 8 9 9 6 6 9 11 12 12 11 10 10 9 9 8 7 7 7 7 7 7 7 7 7 7 7 7 7 8 8 8 9 9 9
2 2 2 3 3 4 4 4 5 5 7 9 10 9 7 7 10 11 11 11 11 11 10 10 10 9 8 7 7 6 6 6 7 7 8 7 6 6 7 8 8 9 9 9 9
2 2 2 3 3 3 4 4 5 6 7 9 10 9 7 8 10 11 11 11 11 11 11 11 11 10 9 7 6 6 5 5 6 7 8 7 6 6 7 8 8 9 9 9 9
2 2 2 3 3 4 4 5 5 6 7 9 9 8 7 8 9 11 11 11 11 11 12 11 11 10 8 6 5 5 4 4 5 7 8 8 7 7 7 8 9 9 9 9 9
2 2 2 3 3 4 4 4 5 6 7 7 7 7 8 9 10 11 11 11 11 11 11 10 9 8 7 6 5 4 4 4 5 6 8 8 7 7 7 8 8 8 8 9 9
2 2 2 2 3 3 4 4 5 5 6 6 6 7 9 9 10 11 11 11 11 10 9 9 7 7 7 7 6 5 4 5 5 6 7 7 7 7 7 8 8 9 9 9 10
2 2 2 2 3 3 3 4 5 5 5 5 5 7 9 9 9 10 11 10 9 8 8 7 7 7 8 7 7 6 5 5 6 7 8 7 7 7 7 8 9 9 10 10 10
2 2 2 2 2 2 2 3 5 5 4 3 5 6 8 8 7 8 10 10 8 7 7 7 7 8 8 7 7 7 6 7 7 7 7 7 6 6 7 8 9 10 11 11 10
2 2 2 2 2 2 2 3 5 5 3 3 5 7 7 7 7 8 9 9 8 7 7 7 8 8 8 8 8 8 8 8 8 7 6 5 5 5 5 7 9 10 11 11 10
2 1 1 2 2 3 4 4 4 3 2 3 6 7 7 7 7 8 9 9 8 8 8 8 8 8 8 8 9 9 9 8 7 6 5 5 4 3 3 5 8 10 10 11 11
2 1 1 2 3 5 5 4 3 2 2 3 5 5 5 6 7 8 8 8 7 6 7 7 8 9 9 9 9 9 8 7 5 5 4 4 4 3 2 3 6 8 10 10 10
2 2 1 2 3 4 5 3 2 2 2 3 4 4 4 4 6 7 6 5 5 5 5 6 7 8 9 9 8 8 7 4 3 2 2 3 3 2 2 4 6 8 9 9 10
2 2 1 2 3 4 3 1 1 2 2 2 3 4 4 4 5 5 4 4 4 4 4 4 5 7 9 8 8 7 6 4 2 2 2 3 3 2 3 4 6 8 8 9 9
3 2 1 2 3 3 2 1 1 1 1 1 2 4 4 4 5 5 4 4 5 5 4 4 5 7 8 8 7 7 7 6 4 3 2 3 3 2 2 4 6 7 7 8 8
2 2 2 2 3 3 1 1 1 1 1 1 2 3 4 4 4 5 5 5 5 6 5 5 5 6 7 8 7 7 7 6 5 3 2 2 2 2 2 3 5 6 6 7 7
1 1 3 4 3 2 2 1 1 1 1 1 2 3 3 3 3 4 4 5 5 6 6 5 5 5 6 7 7 6 6 6 5 4 2 2 2 2 2 3 4 5 5 5 5
1 1 3 5 3 2 2 2 1 1 1 1 2 2 2 2 2 3 4 4 5 6 6 5 5 5 5 6 7 6 6 6 5 4 3 3 3 2 3 3 4 4 4 4 4
0 1 4 4 3 2 2 2 1 1 1 2 2 2 2 2 2 2 3 4 5 6 6 5 5 4 4 5 6 6 6 5 5 4 4 4 3 2 3 4 4 4 3 3 3
0 1 3 3 3 2 2 1 1 1 2 3 3 2 2 2 2 2 2 4 5 6 6 6 5 4 4 4 5 5 5 5 4 4 4 4 3 2 3 4 3 3 3 3 4
0 1 2 2 2 2 2 1 1 1 2 3 3 3 2 2 2 2 3 4 5 5 6 6 5 5 5 5 5 5 5 4 4 4 4 4 2 1 2 3 3 3 4 4 4
1 1 1 2 2 2 2 1 1 1 3 3 3 3 3 2 2 2 3 4 5 5 6 6 5 5 5 5 4 4 4 4 4 4 4 3 2 1 2 2 3 3 4 5 5
1 1 1 2 2 2 2 1 1 2 3 4 4 3 3 2 2 3 4 4 5 5 5 6 6 5 4 4 4 4 4 4 4 4 3 2 1 1 2 2 3 4 5 5 6